DECAYED
Showing default

JILIN-01 GAOFEN 4A, 52388 (Decayed)

Orbit data source: Space-Track

JILIN-01 GAOFEN 4A, 52388 was a payload satellite owned by Changguang WJ (CN) in LEO that was launched on Sat, 30 Apr 2022 UTC via a CHANG ZHENG 11 launch vehicle from the Yellow Sea Launch Area, China (YSLA). Payload-class satellites include a variety of spacecraft equipped with specific instruments for various scientific and technological missions. These include communications satellites like Starlink; space stations such as the ISS; scientific satellites like the Hubble; Earth observation satellites from companies like Planet Labs, Umbra, and HawkEye 360; GPS; miniature CubeSats for education and research; and military/defense satellites.

Not visible in the next 10 days
Identifier
52388, 2022-046A
Orbit
Decayed
Country
Flag of CNCN / PRC
Related business
Manufacturer
Changguang WJ
Mission
Decayed Commercial Imaging
Bus & Motor
JL-1, Unknown motor
Mass
95 kg wet, 95 kg dry
Launch date (UTC)
2022-04-30 (4 years ago)
Launch vehicle
CHANG ZHENG 11
Launch site
Yellow Sea Launch Area, China (YSLA)
Object type
Payload
Rocket body
Debris
Shape & HBR
Cyl + 3 Pan, 0.8 m
Radar Cross Section
1.571 m², Medium (>0.1 m² and < 1m²)

Expand to show TLE details & history
Last TLE update: 6 months ago

TLE from 6 months ago
0 JILIN-01 GAOFEN 4A
1 52388U 22046A   25351.33189404  .15792227  26069-5  19763-3 0  9990
2 52388  97.4705 101.3090 0009577 284.5860  75.4382 16.49342940202369
Epoch: 2025-12-17T07:57Z
TLE epoch observation values (Epoch: 2025-12-17T07:57:55.645Z)
Latitude
0.00002°
Longitude
-104.37614°
Altitude
142.763 km
Speed
7.821 km/s
True Right ascension
06h 45m 14s
True Declination
0° 00' 00"
Sunlit
Object was in full shadow at epoch
Visualization orbit readout
Latitude
Unknown
Longitude
Unknown
Altitude
Unknown
Speed
Unknown
Apparent Right ascension
Unknown
Apparent Declination
Unknown
Sunlit
N/A
Visualization observer readout
Local Sidereal Time
21:52:14
Azimuth
Unknown
Elevation
Unknown
Doppler factor
Unknown
Orbital elements
Apogee altitude
144.105 km
Perigee altitude
131.625 km
Semi-major axis
6,516.002 km
Eccentricity
0.00096
Inclination
97.4705°
RAAN
101.309°
Arg. of periapsis
284.586°
True anomaly
75.54445°
Mean anomaly
75.4382°
Eccentric anomaly
75.49132°
Mean motion
4.1264 °/min
Orbital period
87.24 mins
BSTAR
0.00019763
Loading maneuver chart data...
Computing Atmospheric mass density...
Loading historical data...
Loading historical data...
Loading historical data...
Loading historical data...
Loading historical data...
Loading historical data...
Loading historical data...

Documentation

Showing up to 5 results
|